EW7066 Weather Reports


Display with metric or nautical units.
time (UTC)temp
F
wind
direction
speed
MPH
gust
MPH
rain 1hr
in
rain 24hr
in
rain mn
in
humidity
%
barometer
mb
20260509113047 50 43 4.0 9.0 0.00 0.00 0.00 100 979.3
20260509111543 50 44 1.0 6.0 0.00 0.00 0.00 100 979.4
20260509110039 50 44 1.0 7.0 0.00 0.00 0.00 100 979.4
20260509104532 51 41 1.0 8.0 0.00 0.00 0.00 100 979.5
20260509103027 51 56 2.0 10.0 0.00 0.00 0.00 100 979.4
20260509101524 50 56 3.0 9.0 0.00 0.00 0.00 100 979.5
20260509100019 50 60 1.0 5.0 0.00 0.00 0.00 100 979.7
20260509094511 50 45 1.0 7.0 0.00 0.00 0.00 100 979.7
20260509093007 50 56 2.0 7.0 0.00 0.00 0.00 100 980.1
20260509091502 50 68 1.0 8.0 0.00 0.00 0.00 100 979.8
20260509090120 51 68 2.0 7.0 0.00 0.00 0.00 100 979.8
20260509084552 51 70 2.0 5.0 0.00 0.00 0.00 100 979.9
20260509083053 51 70 2.0 5.0 0.00 0.00 0.00 100 979.8
20260509081543 51 70 2.0 5.0 0.00 0.00 0.00 100 979.7
20260509080055 51 72 1.0 7.0 0.00 0.00 0.00 100 979.9
20260509074508 51 73 2.0 7.0 0.00 0.00 0.00 100 979.9
20260509073115 51 77 1.0 4.0 0.00 0.00 0.00 100 980.2
20260509071553 52 75 3.0 7.0 0.00 0.00 0.00 100 980.3
20260509070055 52 70 1.0 4.0 0.00 0.00 0.00 100 980.4
20260509064545 52 71 1.0 4.0 0.00 0.00 0.00 100 980.6
20260509063047 53 71 0.0 5.0 0.00 0.00 0.00 100 980.5
20260509061533 53 72 1.0 9.0 0.00 0.00 0.00 100 980.7
20260509060029 53 75 3.0 9.0 0.00 0.00 0.00 100 981.0
20260509054525 53 61 2.0 8.0 0.00 0.00 0.00 100 981.0
20260509053032 54 57 2.0 9.0 0.00 0.00 0.00 100 980.9
20260509051513 54 68 1.0 2.0 0.00 0.00 0.00 100 980.9
20260509050032 55 52 1.0 8.0 0.00 0.00 0.00 100 980.9
20260509044505 55 42 4.0 8.0 0.00 0.00 0.00 100 981.1
20260509043002 55 48 1.0 9.0 0.00 0.00 0.00 100 981.2
20260509041554 56 62 1.0 7.0 0.00 0.00 0.00 100 981.3
20260509040050 56 52 3.0 11.0 0.00 0.00 0.00 100 981.3
20260509034546 56 66 3.0 9.0 0.00 0.00 0.00 100 981.4
20260509033057 57 69 2.0 8.0 0.00 0.00 0.00 100 981.4
20260509031535 58 38 2.0 7.0 0.00 0.00 0.00 100 981.3
20260509030031 58 31 1.0 6.0 0.00 0.00 0.00 100 981.4
20260509024528 58 54 3.0 8.0 0.00 0.00 0.00 100 981.5
20260509023025 59 52 3.0 8.0 0.00 0.00 0.00 100 981.6
20260509021518 59 70 3.0 10.0 0.00 0.00 0.00 100 981.5
20260509020011 60 50 1.0 10.0 0.00 0.00 0.00 100 981.3
20260509014505 60 58 2.0 8.0 0.00 0.00 0.00 100 981.2
20260509013002 61 66 1.0 9.0 0.00 0.00 0.00 100 981.1
20260509011604 62 75 0.0 6.0 0.00 0.00 0.00 100 981.1
20260509010028 62 77 1.0 6.0 0.00 0.00 0.00 100 981.1
20260509004519 63 77 0.0 4.0 0.00 0.00 0.00 100 981.2
20260509003013 64 81 0.0 7.0 0.00 0.00 0.00 100 981.1
20260509001508 64 87 0.0 7.0 0.00 0.00 0.00 100 981.2
20260509000004 65 88 1.0 6.0 0.00 0.00 0.00 100 981.2
20260508234559 65 90 3.0 8.0 0.00 0.00 0.00 100 981.3
20260508233026 66 81 1.0 8.0 0.00 0.00 0.00 100 981.3
20260508231521 66 73 1.0 11.0 0.00 0.00 0.00 100 981.2
20260508230014 66 112 8.0 11.0 0.00 0.02 0.00 100 981.4
20260508224529 66 134 2.0 9.0 0.00 0.02 0.00 100 981.4
20260508223005 67 23 3.0 9.0 0.00 0.02 0.00 100 981.4
20260508221502 66 54 1.0 7.0 0.00 0.02 0.00 100 981.4
20260508220055 67 35 1.0 11.0 0.00 0.02 0.00 100 981.6
20260508214551 67 65 0.0 8.0 0.00 0.02 0.00 100 981.5
20260508213045 68 81 2.0 8.0 0.00 0.02 0.00 100 981.7
20260508211547 69 33 2.0 9.0 0.00 0.02 0.00 100 981.7
20260508210007 68 54 2.0 12.0 0.00 0.02 0.00 100 981.7
20260508204503 68 32 1.0 7.0 0.00 0.02 0.00 100 981.7
20260508203102 69 25 2.0 8.0 0.00 0.02 0.00 100 982.0
20260508201554 68 358 2.0 5.0 0.00 0.02 0.00 100 982.2
20260508200058 68 43 3.0 7.0 0.00 0.02 0.00 100 982.5
20260508194543 67 349 2.0 8.0 0.00 0.02 0.00 100 982.6
20260508193048 66 28 1.0 8.0 0.00 0.02 0.00 100 982.8
20260508191533 66 27 1.0 5.0 0.00 0.02 0.00 100 983.0
20260508190028 66 339 0.0 9.0 0.00 0.02 0.00 100 983.1
20260508184527 67 31 1.0 7.0 0.00 0.02 0.00 100 983.3
20260508183016 67 23 0.0 8.0 0.00 0.02 0.00 100 983.5
20260508181513 66 25 2.0 7.0 0.00 0.02 0.00 100 983.6
20260508180008 66 38 1.0 2.0 0.00 0.02 0.00 100 983.8
20260508174505 66 37 2.0 6.0 0.00 0.02 0.00 100 983.9
20260508173106 65 37 0.0 7.0 0.00 0.02 0.00 100 984.1
20260508171555 64 25 2.0 8.0 0.00 0.02 0.00 100 984.7
20260508170048 64 20 2.0 7.0 0.00 0.02 0.00 100 984.8
20260508164543 63 38 3.0 9.0 0.00 0.02 0.00 100 984.9
20260508163009 61 64 3.0 8.0 0.00 0.02 0.00 100 985.3
20260508161509 62 35 0.0 5.0 0.00 0.02 0.00 100 985.3
20260508154554 61 50 1.0 5.0 0.00 0.02 0.00 100 985.5
20260508153049 60 50 1.0 5.0 0.00 0.02 0.00 100 985.6
20260508151547 61 43 1.0 5.0 0.00 0.02 0.00 100 985.7
20260508150053 60 44 1.0 5.0 0.00 0.02 0.00 100 985.8
20260508144542 59 45 1.0 9.0 0.00 0.02 0.00 100 985.8
20260508143037 58 56 1.0 4.0 0.00 0.02 0.00 100 985.9
20260508141527 57 63 2.0 7.0 0.00 0.02 0.00 100 986.0
20260508140026 55 70 2.0 7.0 0.00 0.02 0.00 100 985.9
20260508134514 54 79 1.0 7.0 0.00 0.02 0.00 100 986.2
20260508133009 53 82 2.0 7.0 0.00 0.02 0.00 100 986.1
20260508131507 52 85 0.0 2.0 0.00 0.02 0.00 100 985.9
20260508130002 51 83 0.0 2.0 0.00 0.02 0.00 100 985.8
20260508124600 50 84 0.0 3.0 0.00 0.02 0.00 100 985.9
20260508123050 49 84 0.0 3.0 0.00 0.02 0.00 100 986.1
20260508121547 49 83 0.0 3.0 0.00 0.02 0.00 100 985.9
20260508120042 48 85 0.0 0.0 0.00 0.02 0.00 100 985.9
20260508114533 47 85 0.0 0.0 0.00 0.02 0.00 100 986.0